Date String (YYYY-MM-DD hh:mm:ss) UTC,Instrument flags,absolute air pressure of the measurement (hPa),sample flow rate (lpm),inlet stack bypass flow (lpm),air temperature of the measurement (°C),ambient temperature measured by the external sensor (°C),aerosol sample conditioner tube jacket temperature (°C),OPC LED temperature (°C),internal box temperature (°C),relative humidity of the measurement (%),span deviation,mass concentration of particles derived from Lorenz-Mie calculation of OPC scattering (μg/m³),mass concentration of particles derived from Lorenz-Mie calculation of OPC scattering (μg/m³),mass concentration of particles derived from Lorenz-Mie calculation of OPC scattering (μg/m³)
DateTimeUTC,F1_M11,P_M11,Q1_M11,Q2_M11,T1_M11,T2_M11,T3_M11,T4_M11,T5_M11,U1_M11,ZSPAN_M11,X2_M11,X0_M11,X1_M11
2023-11-19 05:00:00,SystemResetWarning,0824.8,5.00,000.00,024.8,023.6,000.0,033.1,026.2,19.7,0000.0,0001.24,0001.68,0001.06
2023-11-19 05:01:00,SystemResetWarning,0824.8,5.00,000.00,024.8,023.6,000.0,033.1,026.1,19.6,0000.0,0001.24,0001.69,0001.06
2023-11-19 05:02:00,SystemResetWarning,0824.8,5.00,000.00,024.8,023.6,000.0,033.1,026.2,19.6,0000.0,0001.26,0001.75,0001.06
2023-11-19 05:03:00,SystemResetWarning,0824.7,5.00,000.00,024.8,023.7,000.0,033.1,026.2,19.6,0000.0,0001.24,0001.73,0001.04
2023-11-19 05:04:00,SystemResetWarning,0824.8,5.00,000.00,024.8,023.7,000.0,033.1,026.1,19.6,0000.0,0001.21,0001.64,0001.04
2023-11-19 05:05:00,SystemResetWarning,0824.7,4.99,000.00,024.8,023.7,000.0,033.1,026.2,19.6,0000.0,0001.18,0001.55,0001.03
2023-11-19 05:06:00,SystemResetWarning,0824.7,5.00,000.00,024.8,023.7,000.0,033.1,026.2,19.4,0000.0,0001.18,0001.57,0001.03
2023-11-19 05:07:00,SystemResetWarning,0824.7,5.00,000.00,024.8,023.7,000.0,033.2,026.2,19.3,0000.0,0001.17,0001.56,0001.03
2023-11-19 05:08:00,SystemResetWarning,0824.7,5.00,000.00,024.8,023.7,000.0,033.2,026.2,19.3,0000.0,0001.17,0001.57,0001.02
2023-11-19 05:09:00,SystemResetWarning,0824.7,5.00,000.00,024.8,023.7,000.0,033.2,026.1,19.5,0000.0,0001.18,0001.61,0001.01
2023-11-19 05:10:00,SystemResetWarning,0824.7,5.00,000.00,024.8,023.7,000.0,033.2,026.2,19.5,0000.0,0001.16,0001.58,0001.00
2023-11-19 05:11:00,SystemResetWarning,0824.7,5.00,000.00,024.8,023.7,000.0,033.2,026.2,19.5,0000.0,0001.13,0001.53,0000.98
2023-11-19 05:12:00,SystemResetWarning,0824.7,5.00,000.00,024.8,023.7,000.0,033.2,026.2,19.3,0000.0,0001.12,0001.54,0000.97
2023-11-19 05:13:00,SystemResetWarning,0824.7,5.00,000.00,024.8,023.7,000.0,033.2,026.2,19.1,0000.0,0001.10,0001.56,0000.95
2023-11-19 05:14:00,SystemResetWarning,0824.6,5.00,000.00,024.8,023.7,000.0,033.2,026.2,18.5,0000.0,0001.08,0001.52,0000.94
2023-11-19 05:15:00,SystemResetWarning,0824.5,5.00,000.00,024.8,023.7,000.0,033.2,026.2,18.3,0000.0,0001.07,0001.51,0000.93
2023-11-19 05:16:00,SystemResetWarning,0824.5,5.00,000.00,024.8,023.7,000.0,033.2,026.2,18.2,0000.0,0001.08,0001.52,0000.91
2023-11-19 05:17:00,SystemResetWarning,0824.5,5.01,000.00,024.8,023.8,000.0,033.2,026.2,18.2,0000.0,0001.10,0001.59,0000.91
2023-11-19 05:18:00,SystemResetWarning,0824.5,5.01,000.00,024.8,023.8,000.0,033.2,026.2,18.3,0000.0,0001.09,0001.73,0000.90
2023-11-19 05:19:00,SystemResetWarning,0824.6,5.00,000.00,024.8,023.7,000.0,033.2,026.2,18.4,0000.0,0001.08,0001.70,0000.89
2023-11-19 05:20:00,SystemResetWarning,0824.5,5.00,000.00,024.8,023.7,000.0,033.2,026.2,18.5,0000.0,0001.06,0001.72,0000.88
2023-11-19 05:21:00,SystemResetWarning,0824.5,4.99,000.00,024.8,023.7,000.0,033.2,026.2,18.6,0000.0,0001.06,0001.77,0000.88
2023-11-19 05:22:00,SystemResetWarning,0824.6,5.00,000.00,024.8,023.7,000.0,033.2,026.2,18.7,0000.0,0001.05,0001.76,0000.86
2023-11-19 05:23:00,SystemResetWarning,0824.5,5.00,000.00,024.8,023.7,000.0,033.2,026.2,18.7,0000.0,0001.05,0001.74,0000.86
2023-11-19 05:24:00,SystemResetWarning,0824.5,5.00,000.00,024.8,023.7,000.0,033.2,026.2,18.9,0000.0,0001.03,0001.62,0000.86
2023-11-19 05:25:00,SystemResetWarning,0824.5,5.00,000.00,024.8,023.6,000.0,033.2,026.2,19.1,0000.0,0001.03,0001.61,0000.86
2023-11-19 05:26:00,SystemResetWarning,0824.5,5.01,000.00,024.8,023.6,000.0,033.2,026.2,19.0,0000.0,0001.02,0001.60,0000.86
2023-11-19 05:27:00,SystemResetWarning,0824.5,5.00,000.00,024.8,023.6,000.0,033.2,026.1,19.0,0000.0,0001.00,0001.57,0000.85
2023-11-19 05:28:00,SystemResetWarning,0824.5,5.00,000.00,024.8,023.6,000.0,033.2,026.1,18.8,0000.0,0000.98,0001.47,0000.85
2023-11-19 05:29:00,SystemResetWarning,0824.5,5.00,000.00,024.8,023.6,000.0,033.2,026.1,18.7,0000.0,0001.00,0001.36,0000.86
2023-11-19 05:30:00,SystemResetWarning,0824.5,5.00,000.00,024.8,023.6,000.0,033.2,026.1,18.6,0000.0,0001.02,0001.38,0000.87
2023-11-19 05:31:00,SystemResetWarning,0824.5,5.00,000.00,024.8,023.6,000.0,033.2,026.1,18.5,0000.0,0001.00,0001.31,0000.86
2023-11-19 05:32:00,SystemResetWarning,0824.5,5.01,000.00,024.7,023.6,000.0,033.1,026.1,18.4,0000.0,0001.01,0001.33,0000.87
2023-11-19 05:33:00,SystemResetWarning,0824.5,5.00,000.00,024.7,023.6,000.0,033.1,026.1,18.4,0000.0,0001.04,0001.39,0000.88
2023-11-19 05:34:00,SystemResetWarning,0824.5,5.00,000.00,024.7,023.6,000.0,033.1,026.1,18.8,0000.0,0001.04,0001.45,0000.89
2023-11-19 05:35:00,SystemResetWarning,0824.5,5.01,000.00,024.7,023.6,000.0,033.1,026.1,18.8,0000.0,0001.05,0001.50,0000.89
2023-11-19 05:36:00,SystemResetWarning,0824.5,5.00,000.00,024.7,023.6,000.0,033.1,026.1,18.7,0000.0,0001.06,0001.52,0000.90
2023-11-19 05:37:00,SystemResetWarning,0824.5,5.00,000.00,024.7,023.6,000.0,033.1,026.1,18.6,0000.0,0001.08,0001.54,0000.90
2023-11-19 05:38:00,SystemResetWarning,0824.5,5.00,000.00,024.7,023.6,000.0,033.1,026.1,18.7,0000.0,0001.08,0001.56,0000.90
2023-11-19 05:39:00,SystemResetWarning,0824.5,4.99,000.00,024.7,023.6,000.0,033.1,026.1,18.6,0000.0,0001.10,0001.62,0000.91
2023-11-19 05:40:00,SystemResetWarning,0824.5,4.99,000.00,024.7,023.6,000.0,033.1,026.0,18.6,0000.0,0001.11,0001.76,0000.91
2023-11-19 05:41:00,SystemResetWarning,0824.5,5.00,000.00,024.7,023.6,000.0,033.1,026.0,18.5,0000.0,0001.11,0002.20,0000.92
2023-11-19 05:42:00,SystemResetWarning,0824.5,5.00,000.00,024.7,023.6,000.0,033.1,026.0,18.4,0000.0,0001.11,0002.18,0000.92
2023-11-19 05:43:00,SystemResetWarning,0824.4,5.00,000.00,024.7,023.6,000.0,033.1,026.0,18.3,0000.0,0001.09,0002.13,0000.91
2023-11-19 05:44:00,SystemResetWarning,0824.5,5.01,000.00,024.7,023.6,000.0,033.1,026.0,18.3,0000.0,0001.09,0002.11,0000.92
2023-11-19 05:45:00,SystemResetWarning,0824.5,5.01,000.00,024.7,023.6,000.0,033.1,026.0,18.2,0000.0,0001.08,0002.04,0000.92
2023-11-19 05:46:00,SystemResetWarning,0824.5,5.00,000.00,024.7,023.5,000.0,033.1,026.1,18.3,0000.0,0001.09,0002.05,0000.93
2023-11-19 05:47:00,SystemResetWarning,0824.4,5.00,000.00,024.7,023.5,000.0,033.1,026.0,18.3,0000.0,0001.09,0002.05,0000.92
2023-11-19 05:48:00,SystemResetWarning,0824.4,5.00,000.00,024.7,023.5,000.0,033.1,026.0,18.2,0000.0,0001.11,0002.10,0000.93
2023-11-19 05:49:00,SystemResetWarning,0824.4,5.00,000.00,024.7,023.5,000.0,033.1,026.0,18.2,0000.0,0001.12,0002.15,0000.94
2023-11-19 05:50:00,SystemResetWarning,0824.4,5.00,000.00,024.7,023.5,000.0,033.1,026.0,18.1,0000.0,0001.12,0002.13,0000.94
2023-11-19 05:51:00,SystemResetWarning,0824.4,4.99,000.00,024.7,023.5,000.0,033.0,026.0,18.0,0000.0,0001.10,0002.60,0000.94
2023-11-19 05:52:00,SystemResetWarning,0824.4,4.99,000.00,024.7,023.5,000.0,033.1,026.0,18.0,0000.0,0001.10,0002.82,0000.93
2023-11-19 05:53:00,SystemResetWarning,0824.4,4.99,000.00,024.6,023.5,000.0,033.0,026.0,17.9,0000.0,0001.13,0002.91,0000.94
2023-11-19 05:54:00,SystemResetWarning,0824.3,5.00,000.00,024.6,023.5,000.0,033.0,026.0,17.9,0000.0,0001.15,0002.99,0000.94
2023-11-19 05:55:00,SystemResetWarning,0824.3,5.01,000.00,024.7,023.5,000.0,033.0,026.1,18.0,0000.0,0001.15,0002.98,0000.94
2023-11-19 05:56:00,SystemResetWarning,0824.4,5.00,000.00,024.6,023.5,000.0,033.0,026.0,18.1,0000.0,0001.16,0002.98,0000.95
2023-11-19 05:57:00,SystemResetWarning,0824.3,5.00,000.00,024.6,023.5,000.0,033.0,026.0,18.0,0000.0,0001.18,0003.04,0000.94
2023-11-19 05:58:00,SystemResetWarning,0824.4,5.01,000.00,024.7,023.5,000.0,033.0,026.1,17.6,0000.0,0001.18,0003.03,0000.94
2023-11-19 05:59:00,SystemResetWarning,0824.4,5.01,000.00,024.7,023.5,000.0,033.0,026.0,17.4,0000.0,0001.16,0002.99,0000.94
